Location: Home
(42.5358°N, 72.7383°W)
Time: 03:16:22
(UTC-05:00)

Vanguard 2 - Pass Details

Date: 04 December 2021
Orbit: 553 x 2936 km, 32.9° (Epoch: 19 January)

Event Time Altitude Azimuth Distance (km) Brightness Sun altitude
Rises 19:22:31 0° 260° (W) 4,490 12.5 -33.2°
Reaches altitude 10° 19:27:02 10° 239° (WSW) 3,970 11.8 -34.1°
Maximum altitude 19:32:27 15° 208° (SSW) 4,059 11.4 -35.1°
Drops below altitude 10° 19:39:03 10° 180° (S) 4,985 11.6 -36.3°
Sets 19:46:16 0° 161° (SSE) 6,422 12.0 -37.6°
